#timestamp,LO_Frequency,Hit 
1500681615.4,286047107.6,N
1500681635.3,286047105.4,N
1500681655.1,286047108.1,N
1500681675.8,286047108.4,N
1500681695.7,286047109.2,N
1500681715.5,286047109.8,N
1500681735.3,286047109.6,N
1500681755.2,286047109.5,N
1500681775.9,286047110.0,N
1500681795.7,286047109.6,N
1500681815.6,286047109.4,N
1500681835.4,286047110.0,N
1500681855.2,286047109.8,N
1500681875.1,286047109.3,N
1500681876.0,286047109.3,N
1500681895.8,286047109.9,N
1500681915.6,286047107.0,N
1500681935.5,286047107.3,N
1500681955.3,286047109.4,N
1500681975.1,286047108.7,N
1500681995.8,286047109.5,N
1500682015.7,286047109.3,N
1500682035.5,286047111.3,N
1500682055.3,286047108.7,N
1500682075.2,286047109.2,N
1500682095.0,286047108.6,N
1500682095.9,286047108.6,N
1500682115.7,286047110.8,N
1500682135.6,286047108.7,N
1500682155.4,286047111.3,N
1500682175.2,286047110.3,N
1500682195.1,286047111.1,N
1500682196.0,286047111.1,N
1500682215.8,286047109.3,N
1500682235.6,286047109.3,N
1500682255.5,286047109.6,N
1500682275.3,286047109.1,N
1500682295.1,286047109.4,N
1500682315.9,286047111.6,N
1500682335.7,286047111.6,N
1500682355.5,286047109.6,N
1500682375.4,286047109.4,N
1500682395.2,286047111.1,N
1500682415.0,286047113.1,N
1500682415.9,286047113.1,N
1500682435.8,286047110.5,N
1500682455.6,286047112.4,N
1500682475.4,286047112.9,N
1500682495.3,286047112.8,N
1500682515.1,286047112.3,N
1500682516.0,286047112.3,N
1500682535.8,286047112.8,N
1500682555.7,286047111.2,N
1500682575.5,286047112.4,N
1500682595.3,286047112.9,N
1500682615.2,286047111.1,N
1500682635.9,286047110.5,N
1500682655.7,286047111.9,N
1500682675.5,286047112.9,N
1500682695.4,286047112.5,N
1500682715.2,286047111.3,N
1500682735.0,286047108.9,N
1500682735.9,286047108.9,N
1500682755.8,286047111.5,N
1500682775.6,286047112.8,N
1500682795.4,286047112.2,N
1500682815.3,286047112.6,N
1500682835.1,286047114.1,N
1500682855.8,286047114.3,N
1500682875.7,286047112.7,N
1500682895.5,286047111.7,N
1500682915.3,286047115.1,N
1500682935.2,286047115.8,N
1500682955.9,286047116.3,N
1500682975.7,286047116.2,N
1500682995.6,286047115.8,N
1500683015.4,286047116.0,N
1500683035.2,286047113.5,N
1500683055.1,286047116.0,N
1500683056.0,286047116.0,N
1500683075.8,286047113.8,N
1500683095.6,286047116.2,N
1500683115.5,286047115.2,N
1500683135.3,286047114.0,N
1500683155.1,286047111.9,N
1500683175.9,286047114.9,N
1500683195.7,286047116.1,N
1500683215.5,286047116.2,N
1500683235.3,286047116.1,N
1500683255.2,286047116.8,N
1500683275.0,286047114.9,N
1500683275.9,286047114.9,N
1500683295.7,286047115.5,N
1500683315.6,286047114.3,N
1500683335.4,286047112.6,N
1500683355.2,286047112.2,N
1500683375.1,286047114.6,N
1500683376.0,286047114.6,N
1500683395.8,286047113.9,N
1500683415.6,286047116.1,N
1500683435.5,286047113.4,N
1500683455.3,286047113.6,N
1500683475.1,286047114.2,N
1500683495.9,286047115.9,N
1500683515.7,286047115.5,N
1500683535.5,286047114.9,N
1500683555.4,286047115.0,N
1500683575.2,286047117.1,N
1500683595.0,286047116.5,N
1500683595.9,286047116.5,N
1500683615.8,286047116.7,N
1500683635.6,286047119.5,N
1500683655.4,286047116.9,N
1500683675.3,286047116.6,N
1500683695.1,286047116.9,N
1500683696.0,286047116.9,N
1500683715.8,286047116.9,N
1500683735.7,286047119.3,N
1500683755.5,286047122.3,N
1500683775.3,286047124.3,N
1500683795.2,286047124.4,N
1500683815.9,286047118.6,N
1500683835.7,286047119.2,N
1500683855.6,286047119.1,N
1500683875.4,286047120.5,N
1500683895.2,286047120.6,N
1500683915.1,286047122.5,N
1500683916.0,286047122.5,N
1500683935.8,286047121.9,N
1500683955.6,286047120.3,N
1500683975.4,286047119.7,N
1500683995.3,286047120.2,N
1500684015.1,286047122.3,N
1500684035.8,286047121.9,N
1500684055.7,286047120.2,N
1500684075.5,286047120.8,N
1500684095.3,286047120.4,N
1500684115.2,286047120.6,N
1500684135.0,286047120.0,N
1500684135.9,286047120.0,N
1500684155.7,286047120.0,N
1500684175.6,286047120.6,N
1500684195.4,286047120.0,N
1500684215.2,286047118.2,N
1500684235.1,286047119.3,N
1500684236.0,286047119.3,N
1500684255.8,286047120.2,N
1500684275.6,286047119.8,N
1500684295.5,286047122.7,N
1500684315.3,286047122.4,N
1500684335.1,286047121.3,N
1500684355.9,286047121.3,N
1500684375.7,286047124.1,N
1500684395.5,286047124.1,N
1500684415.4,286047124.1,N
1500684435.2,286047121.7,N
1500684455.0,286047124.1,N
1500684455.9,286047124.1,N
1500684475.8,286047123.6,N
1500684495.6,286047122.8,N
1500684515.4,286047120.4,N
1500684535.3,286047120.9,N
1500684555.1,286047120.1,N
1500684556.0,286047120.1,N
1500684575.8,286047118.6,N
1500684595.7,286047119.2,N
1500684615.5,286047119.3,N
1500684635.3,286047120.1,N
1500684655.2,286047121.7,N
1500684675.9,286047124.4,Y
1500684695.7,286047005.1,N
1500684715.6,286047004.5,N
1500684735.4,286047007.1,N
1500684755.2,286047003.4,N
1500684775.1,286047005.8,N
1500684776.0,286047005.8,N
1500684795.8,286047005.9,N
1500684815.6,286047005.4,N
1500684835.5,286047007.2,N
1500684855.3,286047007.3,N
1500684875.1,286047008.0,N
1500684895.9,286047007.3,N
1500684915.7,286047006.6,N
1500684935.5,286047008.8,N
1500684955.4,286047007.2,N
1500684975.2,286047004.6,N
1500684995.0,286047004.6,N
1500684995.9,286047004.6,N
1500685015.8,286047005.7,N
1500685035.6,286047002.9,N
1500685055.4,286047004.5,N
1500685075.2,286047007.4,N
1500685095.1,286047006.2,N
1500685096.0,286047006.2,N
1500685115.8,286047006.5,N
1500685135.6,286047007.6,N
1500685155.5,286047004.5,N
1500685175.3,286047004.8,N
1500685195.1,286047007.2,N
